Regional Weather Roundup
Issued by NWS Goodland, KS

Home | Current Version | Previous Version | Graphics & Text | Print | Product List | Glossary On
Versions: 1 2 3 4 5 6 7 8 9 10 11 12 13 14 15 16 17 18 19 20 21 22 23 24 25 26 27 28 29 30 31 32 33 34 35 36 37 38 39 40 41 42 43 44 45 46 47 48 49 50
000
ASUS43 KGLD 090359
RWRGLD

GOODLAND FORECAST AREA HOURLY WEATHER ROUNDUP
NATIONAL WEATHER SERVICE GOODLAND KS
900 PM MST MON FEB 08 2016

...OFFICIAL OBSERVATIONS...

CITY           SKY/WX    TMP DP  RH WIND       PRES   REMARKS
GOODLAND KS    CLOUDY    26  21  81 NW5       30.27S
HILL CITY KS   CLOUDY    30  21  69 W12       30.25F
IMPERIAL NEB   CLEAR     27  19  72 W9        30.25F
MCCOOK NEB     CLOUDY    32  22  66 W8        30.24F
AKRON CO       CLOUDY    37  27  67 NW23      30.28F
BURLINGTON CO  CLOUDY    30  23  75 NW9       30.28R
LIMON CO       CLOUDY    30  22  72 W9        30.33S
$$

...UNOFFICIAL OBSERVATIONS...

CITY           SKY/WX    TMP DP  RH WIND       PRES   REMARKS
COLBY KS       CLEAR     28  21  74 W13       30.27F WCI  18
GOVE KS          N/A     32  32 100 MISG        N/A
LENORA KS        N/A     31  32 100 MISG        N/A
NORTON KS      MOCLDY    30  18  59 W13       30.22
SHARON SPRINGS   N/A     30  26  83 NW9         N/A
KIT CARSON CO    N/A     32  25  76 MISG        N/A
YUMA CO          N/A     36  30  78 NW17        N/A
$$



USA.gov is the U.S. government's official web portal to all federal, state and local government web resources and services.